Vertical_Velocity
1 2 2 0 1 -0 -4 -1 1 1 -3 3 -1 2 -0 1 -1 -5 1 3 2 1 -0 0 -0 0 -0 -1 -1 0 0 1 -0 0 2 1 1 0 0 -0 -0 -1 -1 1 0 -0 0 0 0
-0 1 2 1 1 -3 -1 -0 3 1 0 5 -0 1 2 1 2 -6 -6 4 0 -0 -1 -1 -0 -0 -0 -0 -0 -0 1 0 1 1 1 1 1 1 1 1 0 -1 -1 -1 -0 0 0 0 -0
1 1 1 1 0 -5 1 2 1 -1 -1 1 -3 -3 3 6 4 -6 -0 3 2 -3 -1 -1 -0 -0 0 -0 -1 0 -0 1 0 0 1 3 1 -0 1 0 1 1 -1 -1 -1 0 0 -0 -0
-1 -0 0 1 -4 -5 1 3 2 4 1 3 1 -2 1 2 3 -3 1 2 5 -0 2 1 -1 0 1 0 -0 -1 0 1 0 0 -0 1 2 2 -0 1 -0 1 1 -0 -1 -1 -1 -1 -1
-1 0 2 0 -4 -3 -0 2 -1 -3 -2 3 -0 -0 4 2 -1 -2 -3 1 2 1 -2 -1 3 0 -1 -0 0 1 1 0 2 2 0 0 1 2 2 0 0 0 1 1 -1 -0 -0 -0 -0
-2 -0 2 -0 -3 -3 1 2 -1 -0 0 -0 2 -4 -0 -3 -2 2 -3 -2 0 1 -2 -1 -0 3 1 0 1 -1 -1 1 1 0 2 1 0 1 2 1 1 1 0 -0 -0 0 -0 0 0
-1 -0 -1 1 -2 -2 -0 -3 1 -0 -2 -3 4 1 3 -5 -0 3 -4 -4 -1 1 1 -1 -2 -2 2 -1 1 1 -0 0 1 0 0 1 1 1 2 2 0 2 1 1 0 -0 -0 -0 0
-2 -1 -2 1 -1 -2 -0 0 2 6 -7 -4 -2 4 -4 -8 7 -0 7 -0 -5 -0 4 4 2 -0 0 2 2 1 2 0 -0 1 0 1 -0 0 -0 1 3 0 1 1 1 1 0 0 1
-2 -3 -2 1 1 -0 -1 -2 2 2 -1 -2 1 2 -4 -1 0 5 6 -3 -4 -2 -1 6 3 0 3 3 2 2 0 1 0 0 3 2 -1 1 -0 1 -0 4 1 1 1 1 1 1 2
-1 -1 -2 -0 -2 -0 -1 1 6 2 -5 -10 7 -4 1 -5 -2 2 8 -0 -4 -5 -4 -0 4 2 0 4 4 -3 0 -0 3 -2 1 3 2 -1 2 1 1 0 3 1 1 1 1 1 1
-1 -1 -3 -1 -0 -0 1 -0 2 0 -2 -2 -1 -5 -5 1 -4 -3 -2 9 4 -5 -2 -2 -2 3 4 0 1 5 1 1 -1 -0 1 3 2 1 0 0 1 0 0 2 2 1 1 1 2
-3 -1 -2 -3 -4 -4 1 3 10 -9 3 -1 -3 -0 -2 -8 -3 -2 -5 1 3 0 -0 -6 -0 -2 -0 4 1 4 4 -1 -2 -1 1 3 -1 1 2 -0 0 1 -0 2 2 1 2 0 2
-1 -2 -4 -4 -1 -6 4 2 6 -14 -4 -1 -5 -4 1 1 0 -1 -1 -1 3 2 -2 5 -7 -1 -2 1 1 -3 -1 2 0 -1 1 5 1 -0 3 2 -1 0 2 0 1 2 2 1 2
-1 -1 -3 -3 -3 -7 2 7 -3 -12 -12 -6 -7 1 2 -4 0 0 -1 1 3 -1 -0 -6 2 1 -2 -1 -1 3 0 3 2 -1 -4 1 1 -2 3 3 2 -0 1 2 0 1 1 2 -0
0 -1 -6 -4 -3 1 -6 15 -3 -5 -13 -0 -1 -4 -4 -4 -4 1 -4 -5 1 -0 -1 2 -3 -1 1 1 -5 3 1 1 3 -4 -7 -1 -5 -1 1 1 4 3 2 1 2 0 2 1 0
-4 1 3 -11 -5 1 -13 13 8 -10 -8 3 -4 -2 -5 2 -1 -4 3 -0 -2 -1 1 -0 -2 -2 -3 -0 1 1 -3 4 -2 -6 66 37 -9 -7 0 -1 2 2 2 2 1 2 1 1 2
2 2 2 8 -13 -3 -23 4 0 -9 -9 -5 -6 -4 -2 -0 -3 0 1 2 0 -0 2 4 0 2 -1 1 -1 -1 -1 4 -2 -1 -13 16 -9 14 21 -1 -3 6 0 2 1 2 0 2 3
-8 -2 4 -8 -6 8 -3 2 -11 -4 -8 -4 -3 1 -0 0 2 4 -3 -1 -1 -2 0 1 1 4 2 0 1 -2 -1 3 1 0 8 -1 24 2 -5 -2 2 3 2 2 1 1 1 1 2
-4 -1 -10 -5 -10 -13 -15 8 -27 -9 -15 -9 3 -1 -1 -4 -0 -4 -3 -2 -2 -2 -1 -1 1 2 3 1 2 1 1 -3 -3 -1 -1 -3 -2 4 -2 3 1 2 3 -0 -0 1 5 -0 1
-9 -1 -2 7 -3 -16 -6 25 -14 -10 -8 -4 -2 -1 -2 1 -1 3 -0 -1 -1 -1 -0 -3 -3 -1 1 -2 2 -0 2 -5 -1 0 4 0 1 26 4 8 14 5 -1 4 1 -1 3 -1 2
-9 -5 -6 -14 2 16 -19 21 -7 -8 -6 -7 -3 -4 -3 -5 -6 -7 -8 -8 -6 -6 -3 -3 -3 -0 0 -0 -1 1 1 2 -5 2 3 5 4 5 4 16 24 7 -2 3 -3 1 3 -0 1
0 -0 -5 -4 -11 -1 -21 -41 -23 2 -3 -3 -7 -8 -7 -2 1 2 5 5 -3 -3 -5 -0 -4 -5 -4 -3 -8 3 5 4 3 -1 0 -1 -3 1 2 0 7 8 3 10 4 3 2 2 -1
-4 -2 -7 -2 -2 3 -12 -25 -5 -11 -0 -0 3 4 -2 -3 -6 -4 -4 -2 8 8 2 -3 -7 -7 -0 3 -1 -5 -2 8 2 -1 -0 -6 -1 -2 -3 5 3 26 2 -2 4 3 4 2 2
-5 -2 -4 1 -4 7 -11 -6 13 -9 -11 -2 -5 -3 -2 -2 -3 -1 -1 -5 -0 -3 -8 -3 -7 2 -0 3 1 -4 -4 1 5 4 6 -3 -1 -5 2 -2 17 11 6 3 -0 2 2 0 2
-0 -3 -7 -10 -13 6 -2 -6 -4 -1 -7 -1 -4 -6 -6 -5 -7 -7 1 4 1 -2 -1 -1 4 3 -1 4 2 -5 0 2 3 4 3 -0 1 0 -2 12 4 7 4 8 3 2 -1 0 2
0 -1 1 -15 -16 -14 30 0 -13 5 -2 -3 -9 -11 -9 -8 -7 -9 -13 -8 0 0 2 -2 -1 1 5 6 -3 -0 -1 -1 -0 -1 2 -3 4 6 -1 3 3 3 12 7 -0 -2 -0 1 0
-2 -1 -6 -12 6 -10 -8 6 14 2 -9 -3 -1 1 -4 -3 6 6 10 -3 -2 -2 -3 -2 -1 3 1 -2 2 8 1 -0 -1 4 -1 -3 2 -1 -5 -4 2 7 8 2 7 -3 -1 1 0
0 1 -7 -7 -16 -18 -2 13 -23 -6 -1 3 2 -1 -2 -4 -3 -1 -2 3 -0 -3 -2 -1 -1 1 -1 3 4 4 1 -2 0 -4 -0 1 1 3 4 -9 -0 2 2 9 3 4 3 5 -0
-0 1 -5 -4 4 -9 -25 17 -0 -14 -8 -6 -2 -1 -8 -4 -5 -5 -1 -1 1 -2 0 -1 -2 -1 9 5 4 2 0 2 2 -1 -5 2 1 8 -7 -10 6 4 -1 16 4 3 -0 -2 3
4 3 -2 -8 -2 5 -3 1 8 -8 -7 -7 0 9 1 -8 -4 -2 -2 -2 1 2 1 7 6 6 6 1 -1 0 -1 -1 -1 -9 -2 -2 5 15 -6 16 4 8 6 6 -4 5 2 1 -3
Height
5839 5839 5840 5841 5844 5842 5841 5842 5842 5844 5847 5846 5844 5845 5847 5847 5847 5850 5850 5851 5851 5852 5853 5854 5855 5856 5857 5858 5858 5859 5859 5860 5860 5861 5861 5861 5862 5863 5863 5863 5862 5862 5861 5861 5862 5862 5862 5863 5863
5835 5835 5835 5835 5837 5836 5836 5836 5838 5839 5841 5841 5839 5840 5841 5842 5843 5842 5844 5847 5847 5847 5848 5849 5851 5853 5854 5855 5855 5856 5857 5859 5859 5860 5860 5860 5861 5861 5862 5862 5862 5862 5861 5861 5861 5861 5862 5862 5862
5830 5830 5830 5830 5830 5830 5830 5831 5833 5834 5835 5835 5834 5833 5835 5838 5839 5837 5837 5842 5843 5842 5844 5844 5846 5847 5850 5851 5852 5853 5854 5856 5857 5858 5858 5859 5859 5859 5860 5861 5861 5861 5861 5860 5860 5860 5861 5861 5861
5825 5825 5826 5825 5823 5824 5824 5826 5827 5829 5829 5829 5829 5828 5829 5831 5833 5832 5830 5833 5838 5836 5838 5840 5841 5842 5844 5846 5848 5850 5851 5852 5854 5856 5857 5857 5858 5858 5858 5859 5859 5859 5859 5859 5860 5860 5860 5860 5861
5821 5820 5820 5819 5818 5818 5819 5820 5821 5820 5820 5822 5823 5822 5823 5824 5825 5826 5824 5825 5830 5831 5831 5832 5835 5836 5837 5839 5842 5845 5847 5848 5850 5851 5853 5854 5855 5855 5856 5857 5857 5858 5858 5858 5858 5858 5859 5859 5859
5816 5815 5815 5814 5813 5812 5813 5813 5814 5814 5812 5812 5815 5815 5815 5816 5817 5819 5819 5817 5820 5824 5825 5825 5826 5829 5831 5833 5836 5839 5841 5844 5845 5847 5848 5850 5852 5853 5853 5854 5855 5855 5856 5856 5856 5856 5857 5857 5857
5811 5810 5809 5808 5807 5806 5806 5805 5806 5806 5805 5804 5806 5808 5808 5806 5808 5811 5812 5811 5811 5815 5818 5818 5819 5821 5824 5826 5828 5831 5834 5837 5840 5841 5843 5845 5847 5849 5850 5850 5852 5853 5853 5853 5854 5854 5854 5855 5855
5806 5805 5804 5803 5802 5801 5800 5800 5800 5800 5798 5798 5796 5799 5800 5800 5800 5802 5804 5804 5803 5804 5807 5811 5812 5813 5816 5818 5820 5823 5826 5830 5833 5836 5838 5840 5842 5844 5845 5847 5848 5849 5850 5851 5851 5851 5852 5852 5853
5801 5801 5799 5798 5797 5796 5794 5793 5792 5793 5792 5790 5790 5791 5792 5791 5792 5794 5795 5795 5796 5796 5797 5800 5803 5805 5807 5809 5813 5814 5818 5821 5825 5829 5832 5834 5836 5838 5840 5842 5844 5844 5846 5847 5848 5848 5848 5849 5850
5795 5794 5792 5792 5791 5790 5788 5787 5786 5785 5784 5782 5783 5781 5782 5782 5781 5783 5785 5787 5786 5788 5788 5789 5792 5795 5798 5800 5801 5806 5809 5813 5816 5820 5825 5828 5830 5831 5834 5837 5838 5840 5841 5843 5844 5845 5845 5846 5847
5788 5787 5785 5784 5784 5783 5783 5780 5778 5778 5777 5776 5775 5772 5772 5773 5773 5771 5772 5775 5779 5778 5779 5780 5781 5784 5787 5790 5793 5795 5800 5804 5808 5811 5816 5820 5822 5824 5827 5830 5832 5834 5836 5838 5839 5840 5841 5842 5843
5783 5781 5779 5778 5776 5775 5774 5773 5771 5766 5767 5767 5766 5765 5764 5762 5762 5763 5761 5761 5765 5767 5769 5769 5770 5771 5774 5778 5782 5785 5787 5794 5798 5801 5805 5811 5813 5816 5820 5822 5825 5828 5831 5832 5834 5835 5837 5838 5839
5778 5776 5774 5772 5770 5767 5766 5764 5761 5757 5756 5755 5754 5753 5752 5752 5752 5750 5750 5749 5749 5752 5753 5755 5758 5759 5761 5766 5768 5771 5776 5780 5787 5791 5795 5799 5803 5807 5812 5815 5818 5821 5823 5826 5828 5830 5831 5832 5833
5776 5773 5770 5767 5764 5761 5760 5757 5752 5748 5746 5744 5742 5741 5740 5738 5738 5738 5736 5735 5736 5737 5739 5740 5742 5745 5749 5751 5754 5759 5762 5768 5773 5778 5784 5788 5792 5796 5802 5806 5809 5813 5816 5819 5821 5823 5825 5826 5828
5773 5770 5765 5762 5759 5756 5752 5752 5744 5739 5737 5734 5731 5728 5726 5725 5722 5722 5722 5721 5720 5719 5722 5724 5726 5729 5733 5735 5739 5744 5748 5753 5760 5767 5769 5777 5782 5786 5790 5795 5800 5803 5807 5810 5813 5816 5819 5820 5822
5768 5767 5764 5757 5753 5749 5743 5743 5737 5731 5726 5724 5718 5715 5713 5710 5709 5706 5705 5704 5703 5703 5704 5705 5708 5710 5714 5718 5722 5727 5732 5739 5747 5755 5750 5752 5770 5775 5779 5783 5789 5793 5797 5801 5805 5809 5812 5813 5815
5763 5760 5755 5752 5746 5740 5732 5729 5722 5717 5715 5710 5706 5700 5696 5694 5692 5690 5688 5685 5684 5685 5686 5687 5688 5691 5694 5698 5702 5708 5715 5721 5728 5740 5745 5745 5746 5756 5759 5770 5776 5783 5787 5792 5796 5800 5803 5806 5808
5756 5753 5748 5742 5738 5735 5728 5722 5711 5705 5699 5695 5691 5686 5682 5679 5675 5671 5668 5667 5666 5666 5668 5668 5670 5674 5677 5680 5684 5689 5696 5704 5712 5724 5728 5735 5737 5746 5752 5760 5763 5771 5778 5782 5787 5791 5794 5797 5801
5750 5746 5741 5735 5730 5727 5720 5711 5700 5696 5688 5681 5674 5670 5667 5664 5661 5658 5655 5653 5651 5650 5651 5653 5656 5658 5661 5665 5670 5674 5680 5686 5694 5702 5712 5719 5731 5735 5736 5745 5749 5757 5766 5771 5777 5782 5787 5790 5793
5742 5738 5733 5729 5722 5715 5712 5705 5689 5683 5674 5668 5665 5662 5657 5654 5651 5649 5647 5644 5642 5642 5641 5642 5644 5647 5649 5652 5657 5663 5667 5670 5677 5686 5695 5707 5719 5722 5729 5731 5736 5747 5754 5762 5767 5773 5777 5782 5785
5735 5731 5726 5721 5717 5709 5703 5700 5685 5674 5666 5661 5656 5652 5648 5646 5643 5640 5637 5634 5631 5630 5630 5631 5632 5634 5636 5639 5644 5650 5654 5659 5665 5673 5679 5690 5702 5709 5715 5723 5730 5735 5743 5751 5757 5764 5769 5773 5777
5730 5725 5720 5714 5708 5702 5691 5684 5675 5668 5663 5656 5651 5647 5643 5639 5634 5630 5626 5623 5620 5618 5617 5617 5619 5621 5623 5625 5630 5638 5644 5649 5656 5661 5668 5673 5684 5695 5702 5712 5720 5725 5732 5741 5746 5753 5760 5765 5769
5723 5718 5713 5708 5702 5695 5685 5677 5664 5659 5658 5652 5645 5639 5634 5629 5623 5618 5612 5608 5606 5606 5605 5603 5604 5606 5609 5612 5618 5625 5632 5639 5644 5651 5657 5662 5668 5679 5689 5703 5713 5718 5721 5731 5738 5744 5750 5756 5761
5716 5712 5706 5701 5694 5688 5679 5668 5662 5651 5646 5643 5637 5630 5623 5615 5608 5602 5597 5591 5590 5587 5586 5586 5587 5591 5594 5598 5604 5611 5620 5628 5635 5640 5647 5652 5657 5666 5680 5697 5705 5712 5715 5722 5728 5735 5742 5747 5753
5709 5703 5697 5693 5687 5681 5673 5664 5654 5646 5639 5632 5625 5618 5610 5603 5596 5589 5582 5575 5570 5569 5568 5567 5569 5573 5578 5583 5589 5598 5606 5615 5622 5629 5638 5645 5649 5659 5674 5686 5690 5698 5706 5713 5719 5728 5732 5739 5744
5702 5697 5690 5682 5678 5674 5670 5661 5649 5641 5633 5625 5615 5607 5598 5590 5580 5573 5568 5563 5559 5555 5553 5551 5551 5555 5562 5568 5575 5584 5592 5601 5609 5619 5629 5637 5642 5650 5660 5669 5679 5687 5693 5701 5709 5716 5723 5730 5735
5695 5691 5685 5678 5673 5664 5659 5654 5644 5634 5626 5617 5609 5599 5588 5577 5568 5560 5551 5546 5544 5542 5541 5539 5540 5541 5549 5555 5562 5571 5580 5589 5600 5609 5618 5627 5636 5642 5653 5663 5673 5679 5684 5693 5699 5707 5715 5722 5728
5689 5684 5679 5672 5664 5656 5651 5646 5634 5627 5620 5611 5600 5588 5577 5566 5556 5545 5537 5531 5530 5530 5529 5528 5529 5533 5538 5544 5551 5560 5570 5579 5589 5598 5609 5619 5630 5638 5645 5656 5668 5670 5680 5686 5694 5701 5707 5714 5719
5682 5678 5674 5668 5660 5651 5637 5640 5628 5617 5609 5601 5591 5579 5566 5555 5544 5533 5526 5522 5522 5523 5524 5523 5525 5527 5532 5537 5544 5553 5562 5572 5581 5591 5601 5612 5622 5632 5643 5656 5656 5668 5674 5679 5686 5693 5701 5707 5714
5675 5671 5667 5660 5656 5650 5637 5632 5623 5610 5604 5593 5584 5572 5561 5549 5537 5528 5522 5519 5521 5521 5520 5520 5522 5525 5528 5533 5539 5547 5555 5564 5574 5586 5596 5606 5613 5624 5638 5647 5656 5664 5671 5672 5681 5688 5694 5699 5704